Location: Waldport
(44.4270°N, 124.0680°W)
Time: 03:27:59
(UTC-07:00)

Amateur Radio Satellites - All Passes

Search period start: 28 August 2016 02:57
Search period end: 29 August 2016 02:57
Location: Waldport, 44.4270°N, 124.0680°W

Satellite Date Start Highest point End Downlink Frequencies (MHz)
Time Altitude Azimuth
Gurwin Techsat 1B 28 Aug 02:59:12 03:04:18 45° 99° (E) 03:09:22 435.225
ITAMSAT 1 28 Aug 03:02:31 03:05:19 14° 89° (E) 03:08:05 435.822/435.867
ITUPSAT 1 28 Aug 03:06:51 03:11:35 67° 258° (WSW) 03:16:21 437.325
Cosmos 2491 28 Aug 03:24:37 03:24:56 10° 48° (NE) 03:25:15 435.465 / 435.565
Oscar 19 28 Aug 03:25:13 03:30:17 53° 290° (WNW) 03:35:19 437.125/150
JAS-2 28 Aug 03:30:15 03:34:52 20° 302° (WNW) 03:39:48 435.910
SWISSCUBE 28 Aug 03:40:35 03:44:40 28° 264° (W) 03:48:46 437.505
AO-7 28 Aug 03:51:24 03:57:58 25° 93° (E) 04:04:28 29.400- 29.500
KKS-1 28 Aug 03:57:37 04:01:58 50° 71° (ENE) 04:06:19 437.445
BEESAT 28 Aug 03:58:13 04:01:52 22° 267° (W) 04:05:32 436.000
PHONESAT 2.4 28 Aug 03:59:23 04:02:10 35° 174° (S) 04:04:57 2401.200-2431.200
MOZHAYETS 4 28 Aug 04:06:19 04:10:53 76° 75° (ENE) 04:15:27
STARS 28 Aug 04:32:15 04:36:36 58° 72° (ENE) 04:40:59 437.465
Gurwin Techsat 1B 28 Aug 04:39:38 04:44:01 27° 296° (WNW) 04:48:24 435.225
ITAMSAT 1 28 Aug 04:40:09 04:45:20 75° 287° (WNW) 04:50:30 435.822/435.867
RS-15 28 Aug 05:06:59 05:17:38 36° 335° (NNW) 05:28:41 29.354- 29.394
HORYU 2 28 Aug 05:11:09 05:12:58 12° 90° (E) 05:14:45 437.375
Cosmos 2491 28 Aug 05:16:01 05:24:31 48° 73° (ENE) 05:32:59 435.465 / 435.565
CUBESAT XI-V 28 Aug 05:27:34 05:32:08 69° 75° (ENE) 05:36:46 437.345
PHONESAT 2.4 28 Aug 05:35:29 05:38:13 31° 191° (S) 05:40:55 2401.200-2431.200
KKS-1 28 Aug 05:35:51 05:38:48 17° 268° (W) 05:41:46 437.445
BRITE-PL 28 Aug 05:42:35 05:46:04 16° 87° (E) 05:49:31 437.365/2234.400
AO-7 28 Aug 05:43:11 05:51:30 76° 292° (WNW) 05:59:45 29.400- 29.500
MOZHAYETS 4 28 Aug 05:47:04 05:48:36 11° 272° (W) 05:50:06
AO-85 28 Aug 05:52:32 05:57:44 58° 120° (ESE) 06:02:39 145.980
STARS 28 Aug 06:10:49 06:13:20 15° 269° (W) 06:15:51 437.465
ITAMSAT 1 28 Aug 06:22:15 06:23:56 12° 305° (NW) 06:25:35 435.822/435.867
Cosmos 2504 28 Aug 06:28:43 06:33:43 18° 78° (ENE) 06:38:32 435.465 / 435.565
NOAA 18 28 Aug 06:30:11 06:33:20 15° 90° (E) 06:36:26 137.9125
YUBILEINY 28 Aug 06:31:31 06:40:00 54° 89° (E) 06:48:28 435.215
HORYU 2 28 Aug 06:45:34 06:49:59 69° 286° (WNW) 06:54:21 437.375
LilacSat-2 28 Aug 06:50:09 06:53:07 22° 94° (E) 06:56:05 437.200
GOMX 1 28 Aug 06:53:10 06:57:57 31° 93° (E) 07:02:31 467.674
DOVE 4 28 Aug 06:58:19 07:01:11 15° 87° (E) 07:03:57 437.250
STRAND 1 28 Aug 07:00:43 07:05:25 39° 68° (ENE) 07:10:08 437.568
SO-50 28 Aug 07:04:53 07:07:51 16° 33° (NNE) 07:10:46 436.795
CUBESAT XI-V 28 Aug 07:07:53 07:10:02 13° 271° (W) 07:12:11 437.345
Cubesat XI-IV 28 Aug 07:12:26 07:17:28 41° 98° (E) 07:22:27 437.490
PHONESAT 2.4 28 Aug 07:12:41 07:14:02 12° 206° (SSW) 07:15:23 2401.200-2431.200
Cosmos 2491 28 Aug 07:13:11 07:21:12 41° 274° (W) 07:29:14 435.465 / 435.565
BRITE-PL 28 Aug 07:19:24 07:25:08 78° 285° (WNW) 07:30:44 437.365/2234.400
NOAA 15 28 Aug 07:23:22 07:28:40 65° 102° (ESE) 07:33:57 137.62
CUTE-I 28 Aug 07:24:01 07:29:13 52° 100° (E) 07:34:23 437.470
RS-15 28 Aug 07:24:40 07:34:56 30° 10° (N) 07:45:19 29.354- 29.394
AO-85 28 Aug 07:34:08 07:38:30 27° 318° (NW) 07:42:40 145.980
AO-7 28 Aug 07:37:25 07:42:58 20° 313° (NW) 07:48:31 29.400- 29.500
PRISM 28 Aug 08:07:02 08:09:55 19° 64° (ENE) 08:12:48 437.425
NOAA 18 28 Aug 08:09:06 08:14:35 76° 288° (WNW) 08:20:01 137.9125
CANX-2 28 Aug 08:09:08 08:11:47 16° 91° (E) 08:14:27 2200.000
CUTE 1.7 + AOD 2 28 Aug 08:15:05 08:17:47 16° 91° (E) 08:20:27 437.475
Cosmos 2504 28 Aug 08:17:35 08:26:02 87° 96° (E) 08:33:55 435.465 / 435.565
LilacSat-2 28 Aug 08:24:11 08:27:26 28° 291° (WNW) 08:30:39 437.200
YUBILEINY 28 Aug 08:29:04 08:37:05 37° 291° (WNW) 08:45:09 435.215
GOMX 1 28 Aug 08:31:04 08:36:03 38° 292° (WNW) 08:40:50 467.674
ISS 28 Aug 08:33:55 08:36:19 19° 135° (SE) 08:38:43 145.825
DOVE 4 28 Aug 08:34:22 08:39:27 68° 286° (WNW) 08:44:12 437.250
AIST 1 28 Aug 08:35:19 08:36:17 11° 82° (E) 08:37:15
STRAND 1 28 Aug 08:40:22 08:44:41 27° 265° (W) 08:49:02 437.568
SO-50 28 Aug 08:44:26 08:49:06 82° 55° (NE) 08:53:35 436.795
CUSAT 1 28 Aug 08:52:09 08:54:43 12° 61° (ENE) 08:57:28 437.405
Cubesat XI-IV 28 Aug 08:52:51 08:57:22 29° 296° (WNW) 09:01:52 437.490
BRITE-PL 28 Aug 08:59:54 09:02:40 14° 303° (WNW) 09:05:25 437.365/2234.400
HO-68 28 Aug 09:01:12 09:08:13 53° 101° (E) 09:15:10 435.675
NOAA 15 28 Aug 09:04:14 09:07:57 20° 300° (WNW) 09:11:39 137.62
CUTE-I 28 Aug 09:04:48 09:08:55 23° 298° (WNW) 09:13:02 437.470
UNISAT 6 28 Aug 09:09:47 09:11:06 11° 59° (ENE) 09:12:24 437.425
CINEMA 3 28 Aug 09:10:26 09:15:01 83° 103° (ESE) 09:19:22 145.822/145.860
BEESAT 3 28 Aug 09:18:34 09:21:01 16° 111° (ESE) 09:23:29 437.485
SEEDS 28 Aug 09:20:45 09:24:55 58° 100° (E) 09:29:05 437.485
UWE-3 28 Aug 09:20:47 09:23:51 20° 92° (E) 09:26:53 435.000/436.395/437.385
CUBEBUG 2 28 Aug 09:24:05 09:27:54 31° 96° (E) 09:31:37 437.445
ZACube-1 28 Aug 09:33:58 09:36:47 17° 92° (E) 09:39:34 437.345
RS-15 28 Aug 09:39:00 09:51:06 55° 42° (NE) 10:03:02 29.354- 29.394
PRISM 28 Aug 09:41:03 09:44:55 41° 261° (W) 09:48:51 437.425
CANX-2 28 Aug 09:43:49 09:47:54 48° 288° (WNW) 09:51:59 2200.000
ANTELSAT 28 Aug 09:44:04 09:47:41 24° 66° (ENE) 09:51:16 437.575/2403.000
CUTE 1.7 + AOD 2 28 Aug 09:49:47 09:53:52 47° 288° (WNW) 09:57:57 437.475
AAUSAT CUBESAT 2 28 Aug 09:49:54 09:54:04 68° 102° (ESE) 09:58:12 437.432
DELFI C3 28 Aug 09:50:27 09:51:10 10° 89° (E) 09:51:52 145.870
NOAA 18 28 Aug 09:52:02 09:54:20 13° 306° (NW) 09:56:38 137.9125
DANDE 28 Aug 09:54:58 09:57:26 13° 66° (ENE) 10:00:08 436.750
COMPASS 1 28 Aug 09:58:41 10:02:51 77° 286° (WNW) 10:07:03 437.405
AIST 1 28 Aug 10:08:52 10:13:12 73° 279° (W) 10:17:36
ISS 28 Aug 10:09:15 10:12:30 65° 333° (NNW) 10:15:47 145.825
TIGRISAT 28 Aug 10:13:56 10:18:16 43° 71° (ENE) 10:22:32 435.000
Cosmos 2504 28 Aug 10:14:29 10:20:23 21° 297° (WNW) 10:26:03 435.465 / 435.565
SO-50 28 Aug 10:27:02 10:28:51 12° 253° (WSW) 10:30:39 436.795
CUSAT 1 28 Aug 10:31:18 10:37:37 63° 77° (ENE) 10:45:13 437.405
BEESAT 2 28 Aug 10:37:45 10:41:37 57° 121° (ESE) 10:45:33 435.950
Oscar 11 28 Aug 10:38:38 10:42:59 89° 132° (SE) 10:47:18 145.826/435.025
UNISAT 6 28 Aug 10:42:31 10:47:08 89° 77° (ENE) 10:51:40 437.425
FUNcube-1 28 Aug 10:47:13 10:51:23 78° 285° (WNW) 10:55:30 145.935
HO-68 28 Aug 10:49:23 10:55:39 34° 300° (WNW) 11:01:54 435.675
CINEMA 3 28 Aug 10:49:47 10:51:25 12° 302° (WNW) 10:53:00 145.822/145.860
GONETS M04 28 Aug 10:51:14 10:56:13 17° 74° (ENE) 11:01:13
BEESAT 3 28 Aug 10:54:29 10:58:18 50° 309° (NW) 11:02:10 437.485
UWE-3 28 Aug 10:56:36 11:00:29 37° 290° (WNW) 11:04:17 435.000/436.395/437.385
SEEDS 28 Aug 10:57:51 11:00:09 15° 298° (WNW) 11:02:29 437.485
CUBEBUG 2 28 Aug 11:00:59 11:04:23 24° 294° (WNW) 11:07:45 437.445
QB50P1 28 Aug 11:07:26 11:10:57 25° 67° (ENE) 11:14:28 145.935-145.965
ZACube-1 28 Aug 11:09:21 11:13:17 41° 289° (WNW) 11:17:11 437.345
POPSAT HIP 1 28 Aug 11:17:13 11:21:00 31° 68° (ENE) 11:24:46 437.405
ANTELSAT 28 Aug 11:19:54 11:24:11 39° 262° (W) 11:28:26 437.575/2403.000
DELFI C3 28 Aug 11:22:28 11:26:27 67° 284° (WNW) 11:30:25 145.870
Cosmos 2499 28 Aug 11:23:26 11:28:42 19° 80° (E) 11:33:44 435.465 / 435.565
AAUSAT CUBESAT 2 28 Aug 11:27:10 11:29:00 13° 298° (WNW) 11:30:50 437.432
DANDE 28 Aug 11:35:11 11:40:33 80° 81° (E) 11:47:36 436.750
DUCHIFAT 1 28 Aug 11:43:32 11:47:40 53° 72° (ENE) 11:51:49 145.980
PCSat 28 Aug 11:44:24 11:49:09 32° 111° (ESE) 11:53:56 145.827
ISS 28 Aug 11:46:38 11:49:25 24° 352° (N) 11:52:11 145.825
QB50P2 28 Aug 11:47:16 11:51:31 70° 74° (ENE) 11:55:47 145.880/145.840
HUMSAT D 28 Aug 11:48:32 11:52:37 74° 284° (WNW) 11:56:41 437.325/437.525
POLYITAN 1 28 Aug 11:49:46 11:54:02 71° 74° (ENE) 11:58:18 437.675
AUBIESAT-1 28 Aug 11:49:51 11:52:29 17° 96° (E) 11:55:00 437.475
TIGRISAT 28 Aug 11:51:41 11:55:07 21° 267° (W) 11:58:32 435.000
RS-15 28 Aug 11:51:56 12:03:51 57° 247° (WSW) 12:15:32 29.354- 29.394
M-CUBED/EXP-1 PRIME 28 Aug 11:55:44 11:59:07 24° 99° (E) 12:02:17 437.505
NANOSAT C BR1 28 Aug 11:57:37 12:01:52 81° 78° (ENE) 12:06:09 145.865
JAS-2 28 Aug 11:58:57 12:03:52 43° 67° (ENE) 12:09:10 435.910
CUBEBUG 1 28 Aug 11:59:01 12:01:44 16° 91° (E) 12:04:27 437.445
VELOX 1 28 Aug 11:59:38 12:01:41 13° 89° (E) 12:03:43 145.980
50 SAT 28 Aug 12:01:15 12:02:07 11° 90° (E) 12:02:57 437.505
CUSAT 1 28 Aug 12:14:01 12:19:22 27° 271° (W) 12:25:28 437.405
DX 1 28 Aug 12:14:25 12:16:09 12° 89° (E) 12:17:53 434.975-435.025
BEESAT 2 28 Aug 12:16:55 12:19:47 19° 320° (NW) 12:22:41 435.950
Oscar 11 28 Aug 12:17:41 12:18:24 10° 301° (WNW) 12:19:08 145.826/435.025
BUGSAT 1 28 Aug 12:35:08 12:39:23 84° 77° (ENE) 12:43:40 437.445
ESTCUBE 1 28 Aug 12:42:01 12:46:33 67° 102° (ESE) 12:51:04 437.505/2401.250
QB50P1 28 Aug 12:42:47 12:46:36 31° 264° (W) 12:50:27 145.935-145.965
GONETS M04 28 Aug 12:42:47 12:51:31 80° 96° (E) 13:00:23
AO-85 28 Aug 12:44:03 12:46:19 14° 31° (NNE) 12:48:30 145.980
Gurwin Techsat 1B 28 Aug 12:45:42 12:48:03 13° 56° (NE) 12:50:26 435.225
AISAT 28 Aug 12:46:59 12:51:14 42° 98° (E) 12:55:27 437.250
UKube-1 28 Aug 12:51:48 12:55:19 23° 95° (E) 12:58:48 .
POPSAT HIP 1 28 Aug 12:53:13 12:56:47 25° 265° (W) 13:00:21 437.405
AIST 2 28 Aug 12:56:01 13:00:05 69° 122° (ESE) 13:04:13 435.215
Oscar 19 28 Aug 13:04:53 13:09:35 36° 67° (ENE) 13:14:18 437.125/150
AO-7 28 Aug 13:06:45 13:08:59 11° 36° (NE) 13:11:14 29.400- 29.500
Cosmos 2499 28 Aug 13:12:47 13:20:56 84° 278° (W) 13:28:30 435.465 / 435.565
DANDE 28 Aug 13:19:33 13:23:03 17° 271° (W) 13:27:06 436.750
DUCHIFAT 1 28 Aug 13:21:13 13:23:40 15° 269° (W) 13:26:08 145.980
AUBIESAT-1 28 Aug 13:23:21 13:27:13 41° 295° (WNW) 13:30:48 437.475
ISS 28 Aug 13:23:43 13:26:34 26° 12° (NNE) 13:29:25 145.825
QB50P2 28 Aug 13:26:25 13:27:48 11° 271° (W) 13:29:10 145.880/145.840
PCSat 28 Aug 13:27:17 13:32:26 42° 310° (NW) 13:37:36 145.827
POLYITAN 1 28 Aug 13:29:01 13:30:19 11° 271° (W) 13:31:36 437.675
M-CUBED/EXP-1 PRIME 28 Aug 13:30:00 13:33:40 30° 298° (WNW) 13:37:04 437.505
50 SAT 28 Aug 13:32:26 13:36:01 54° 286° (WNW) 13:39:35 437.505
CUBEBUG 1 28 Aug 13:34:01 13:38:21 53° 288° (WNW) 13:42:39 437.445
VELOX 1 28 Aug 13:34:09 13:38:36 67° 286° (WNW) 13:43:01 145.980
JAS-2 28 Aug 13:45:01 13:49:16 25° 268° (W) 13:53:46 435.910
SPROUT 28 Aug 13:47:22 13:51:41 87° 277° (W) 13:55:56 437.525
DX 1 28 Aug 13:48:26 13:52:49 69° 287° (WNW) 13:57:09 434.975-435.025
TISAT 1 28 Aug 14:03:28 14:07:12 30° 96° (E) 14:10:52 437.305
RS-15 28 Aug 14:09:42 14:13:21 12° 269° (W) 14:16:59 29.354- 29.394
ESTCUBE 1 28 Aug 14:20:17 14:22:50 15° 299° (WNW) 14:25:22 437.505/2401.250
O/OREOS (USA 219) 28 Aug 14:21:02 14:25:28 62° 109° (ESE) 14:29:57 437.305
ITAMSAT 1 28 Aug 14:21:29 14:25:49 28° 64° (ENE) 14:30:09 435.822/435.867
Gurwin Techsat 1B 28 Aug 14:21:51 14:27:10 82° 74° (ENE) 14:32:31 435.225
AO-85 28 Aug 14:23:19 14:27:39 72° 53° (NE) 14:31:39 145.980
AISAT 28 Aug 14:24:04 14:27:27 21° 296° (WNW) 14:30:49 437.250
UKube-1 28 Aug 14:27:29 14:31:26 34° 292° (WNW) 14:35:20 .
AIST 2 28 Aug 14:36:09 14:39:00 18° 321° (NW) 14:41:53 435.215
GONETS M04 28 Aug 14:42:36 14:49:25 25° 298° (WNW) 14:56:21
Oscar 19 28 Aug 14:44:23 14:48:55 31° 265° (W) 14:53:30 437.125/150
AO-7 28 Aug 14:51:53 14:59:33 43° 59° (ENE) 15:07:14 29.400- 29.500
ISS 28 Aug 15:00:04 15:03:22 88° 32° (NNE) 15:06:39 145.825
ITUPSAT 1 28 Aug 15:05:58 15:10:02 27° 95° (E) 15:14:04 437.325
Cosmos 2499 28 Aug 15:10:13 15:15:10 17° 299° (WNW) 15:19:56 435.465 / 435.565
PCSat 28 Aug 15:15:44 15:17:21 11° 332° (NNW) 15:18:57 145.827
SWISSCUBE 28 Aug 15:38:04 15:42:48 63° 102° (ESE) 15:47:32 437.505
TISAT 1 28 Aug 15:39:14 15:42:44 26° 293° (WNW) 15:46:12 437.305
BEESAT 28 Aug 15:55:04 15:59:52 83° 104° (ESE) 16:04:38 436.000
ITAMSAT 1 28 Aug 16:00:13 16:05:06 41° 262° (W) 16:10:00 435.822/435.867
MOZHAYETS 4 28 Aug 16:00:49 16:03:37 16° 90° (E) 16:06:24
O/OREOS (USA 219) 28 Aug 16:02:19 16:05:19 17° 309° (NW) 16:08:21 437.305
Gurwin Techsat 1B 28 Aug 16:05:12 16:07:46 13° 272° (W) 16:10:20 435.225
AO-85 28 Aug 16:05:57 16:07:20 11° 253° (WSW) 16:08:43 145.980
HORYU 2 28 Aug 16:10:32 16:13:12 16° 61° (ENE) 16:15:52 437.375
ISS 28 Aug 16:37:45 16:39:24 13° 228° (SW) 16:41:02 145.825
YUBILEINY 28 Aug 16:39:49 16:47:13 29° 65° (ENE) 16:54:30 435.215
ITUPSAT 1 28 Aug 16:43:35 16:47:55 35° 292° (WNW) 16:52:14 437.325
AO-7 28 Aug 16:44:09 16:52:11 50° 259° (W) 17:00:16 29.400- 29.500
BRITE-PL 28 Aug 16:54:57 16:58:32 20° 61° (ENE) 17:02:18 437.365/2234.400
Cubesat XI-IV 28 Aug 16:59:56 17:02:07 13° 55° (NE) 17:04:19 437.490
NOAA 15 28 Aug 17:07:42 17:11:11 18° 59° (ENE) 17:14:43 137.62
CUTE-I 28 Aug 17:10:26 17:13:29 16° 58° (ENE) 17:16:32 437.470
SWISSCUBE 28 Aug 17:17:05 17:20:07 17° 299° (WNW) 17:23:07 437.505
BEESAT 2 28 Aug 17:18:21 17:19:27 11° 32° (NNE) 17:20:32 435.950
KKS-1 28 Aug 17:23:07 17:27:37 81° 106° (ESE) 17:32:04 437.445
CUBESAT XI-V 28 Aug 17:23:38 17:26:27 16° 90° (E) 17:29:17 437.345
BEESAT 3 28 Aug 17:32:59 17:36:01 20° 42° (NE) 17:39:03 437.485
LilacSat-2 28 Aug 17:34:30 17:36:47 15° 65° (ENE) 17:39:03 437.200
BEESAT 28 Aug 17:34:46 17:36:58 13° 302° (WNW) 17:39:12 436.000
MOZHAYETS 4 28 Aug 17:36:39 17:41:08 56° 287° (WNW) 17:45:37
HORYU 2 28 Aug 17:44:52 17:49:17 60° 258° (WSW) 17:53:43 437.375
HO-68 28 Aug 17:50:50 17:52:08 11° 43° (NE) 17:53:25 435.675
STARS 28 Aug 17:56:05 18:00:31 89° 103° (ESE) 18:04:54 437.465
NOAA 18 28 Aug 17:57:15 18:02:15 36° 65° (ENE) 18:07:15 137.9125
GOMX 1 28 Aug 18:02:09 18:06:53 38° 68° (ENE) 18:11:52 467.674
DOVE 4 28 Aug 18:04:28 18:08:17 21° 62° (ENE) 18:12:10 437.250
Cosmos 2504 28 Aug 18:08:50 18:15:13 32° 69° (ENE) 18:21:29 435.465 / 435.565
Cosmos 2491 28 Aug 18:19:10 18:27:27 52° 89° (E) 18:35:50 435.465 / 435.565
BRITE-PL 28 Aug 18:31:37 18:36:26 60° 260° (W) 18:41:43 437.365/2234.400
Cubesat XI-IV 28 Aug 18:35:59 18:41:20 79° 74° (ENE) 18:46:41 437.490
YUBILEINY 28 Aug 18:36:04 18:44:46 69° 267° (W) 18:53:22 435.215
CINEMA 3 28 Aug 18:38:56 18:41:10 13° 59° (ENE) 18:43:23 145.822/145.860
NOAA 15 28 Aug 18:45:11 18:50:25 69° 258° (WSW) 18:55:42 137.62
CUTE-I 28 Aug 18:47:30 18:52:50 83° 255° (WSW) 18:58:12 437.470
PCSat 28 Aug 18:48:53 18:50:06 11° 27° (NNE) 18:51:17 145.827
BEESAT 2 28 Aug 18:54:08 18:58:07 59° 52° (NE) 19:02:04 435.950
CUBESAT XI-V 28 Aug 18:59:35 19:04:13 60° 287° (WNW) 19:08:52 437.345
KKS-1 28 Aug 19:01:44 19:03:31 12° 301° (WNW) 19:05:19 437.445
CANX-2 28 Aug 19:04:05 19:06:29 15° 63° (ENE) 19:08:54 2200.000
LilacSat-2 28 Aug 19:07:03 19:10:44 44° 261° (W) 19:14:26 437.200
CUTE 1.7 + AOD 2 28 Aug 19:09:56 19:12:21 15° 63° (ENE) 19:14:47 437.475
BEESAT 3 28 Aug 19:10:06 19:13:57 50° 240° (WSW) 19:17:46 437.485
STRAND 1 28 Aug 19:11:57 19:13:15 11° 87° (E) 19:14:33 437.568
HO-68 28 Aug 19:31:20 19:38:07 47° 65° (ENE) 19:44:56 435.675
STARS 28 Aug 19:35:00 19:36:10 11° 302° (WNW) 19:37:19 437.465
NOAA 18 28 Aug 19:37:52 19:42:53 35° 263° (W) 19:47:56 137.9125
AIST 2 28 Aug 19:38:39 19:40:45 13° 34° (NE) 19:42:51 435.215
DOVE 4 28 Aug 19:40:22 19:45:29 60° 260° (W) 19:50:46 437.250
GOMX 1 28 Aug 19:40:29 19:45:00 31° 267° (W) 19:49:44 467.674
Cosmos 2504 28 Aug 20:01:58 20:08:50 49° 270° (W) 20:15:38 435.465 / 435.565
FUNcube-1 28 Aug 20:11:11 20:12:32 11° 60° (ENE) 20:13:51 145.935
CINEMA 3 28 Aug 20:12:32 20:17:34 89° 85° (E) 20:22:33 145.822/145.860
SEEDS 28 Aug 20:13:50 20:17:50 48° 72° (ENE) 20:21:52 437.485
AIST 1 28 Aug 20:14:20 20:18:18 32° 74° (ENE) 20:22:15
Cosmos 2491 28 Aug 20:16:35 20:24:32 38° 290° (WNW) 20:32:36 435.465 / 435.565
UWE-3 28 Aug 20:19:07 20:22:37 22° 66° (ENE) 20:26:04 435.000/436.395/437.385
Cubesat XI-IV 28 Aug 20:19:11 20:22:00 14° 271° (W) 20:24:51 437.490
CUBEBUG 2 28 Aug 20:23:12 20:27:26 35° 69° (ENE) 20:31:35 437.445
PCSat 28 Aug 20:29:59 20:35:05 39° 50° (NE) 20:40:09 145.827
ZACube-1 28 Aug 20:31:20 20:34:28 19° 65° (ENE) 20:37:34 437.345
CUTE-I 28 Aug 20:32:23 20:33:41 11° 273° (W) 20:34:58 437.470
BEESAT 2 28 Aug 20:33:17 20:35:29 14° 250° (WSW) 20:37:41 435.950
YUBILEINY 28 Aug 20:36:09 20:39:46 13° 288° (WNW) 20:43:24 435.215
CANX-2 28 Aug 20:37:47 20:41:54 55° 260° (W) 20:46:03 2200.000
AAUSAT CUBESAT 2 28 Aug 20:41:26 20:45:25 53° 73° (ENE) 20:49:27 437.432
CUTE 1.7 + AOD 2 28 Aug 20:43:39 20:47:45 55° 260° (W) 20:51:55 437.475
STRAND 1 28 Aug 20:48:00 20:53:09 88° 104° (ESE) 20:58:16 437.568
COMPASS 1 28 Aug 20:50:36 20:54:44 87° 72° (ENE) 20:58:53 437.405
AIST 2 28 Aug 21:15:46 21:19:58 75° 54° (NE) 21:24:09 435.215
HO-68 28 Aug 21:19:24 21:25:57 37° 263° (W) 21:32:33 435.675
PRISM 28 Aug 21:21:06 21:24:26 22° 94° (E) 21:27:45 437.425
Oscar 11 28 Aug 21:34:36 21:38:54 83° 76° (ENE) 21:43:13 145.826/435.025
FUNcube-1 28 Aug 21:43:42 21:48:09 84° 257° (WSW) 21:52:31 145.935
SEEDS 28 Aug 21:51:20 21:53:49 15° 269° (W) 21:56:18 437.485
AIST 1 28 Aug 21:52:13 21:55:45 24° 272° (W) 21:59:14
CINEMA 3 28 Aug 21:53:42 21:55:19 11° 273° (W) 21:56:55 145.822/145.860
UWE-3 28 Aug 21:54:34 21:58:51 40° 262° (W) 22:03:04 435.000/436.395/437.385
CUBEBUG 2 28 Aug 22:00:12 22:04:05 26° 266° (W) 22:07:55 437.445
ZACube-1 28 Aug 22:06:10 22:10:27 45° 261° (W) 22:14:40 437.345
DELFI C3 28 Aug 22:09:28 22:13:24 85° 76° (ENE) 22:17:22 145.870
PCSat 28 Aug 22:13:32 22:18:25 35° 249° (WSW) 22:23:16 145.827
AAUSAT CUBESAT 2 28 Aug 22:19:08 22:21:14 14° 270° (W) 22:23:22 437.432
STRAND 1 28 Aug 22:29:03 22:31:36 14° 303° (WNW) 22:34:10 437.568
UNISAT 6 28 Aug 22:33:56 22:36:30 15° 91° (E) 22:39:02 437.425
AUBIESAT-1 28 Aug 22:35:40 22:39:50 34° 63° (ENE) 22:43:59 437.475
HUMSAT D 28 Aug 22:40:55 22:45:05 88° 247° (WSW) 22:49:14 437.325/437.525
M-CUBED/EXP-1 PRIME 28 Aug 22:42:07 22:46:37 47° 66° (ENE) 22:51:07 437.505
O/OREOS (USA 219) 28 Aug 22:50:44 22:54:10 20° 53° (NE) 22:57:37 437.305
GONETS M04 28 Aug 22:51:10 22:59:35 44° 72° (ENE) 23:07:54
PRISM 28 Aug 22:56:01 22:59:48 33° 291° (WNW) 23:03:34 437.425
AIST 2 28 Aug 22:56:14 22:57:51 12° 252° (WSW) 22:59:29 435.215
CUBEBUG 1 28 Aug 22:56:42 22:59:37 17° 62° (ENE) 23:02:31 437.445
VELOX 1 28 Aug 22:58:31 23:01:07 16° 61° (ENE) 23:03:44 145.980
SO-50 28 Aug 23:01:13 23:04:34 19° 111° (ESE) 23:07:53 436.795
Cosmos 2499 28 Aug 23:02:08 23:08:34 35° 71° (ENE) 23:14:58 435.465 / 435.565
ANTELSAT 28 Aug 23:09:47 23:13:46 36° 97° (E) 23:17:41 437.575/2403.000
DX 1 28 Aug 23:11:28 23:13:51 15° 61° (ENE) 23:16:14 434.975-435.025
CUSAT 1 28 Aug 23:38:23 23:41:11 35° 92° (E) 23:44:40 437.405
TIGRISAT 28 Aug 23:40:08 23:44:26 74° 102° (ESE) 23:48:40 435.000
NANOSAT C BR1 28 Aug 23:42:42 23:43:59 11° 89° (E) 23:45:17 145.865
ESTCUBE 1 28 Aug 23:42:51 23:47:19 74° 74° (ENE) 23:51:49 437.505/2401.250
AISAT 28 Aug 23:45:38 23:49:53 45° 71° (ENE) 23:54:11 437.250
UKube-1 28 Aug 23:47:53 23:51:27 25° 66° (ENE) 23:55:02 .
RS-15 29 Aug 00:08:18 00:16:25 23° 98° (E) 00:24:45 29.354- 29.394
UNISAT 6 29 Aug 00:09:22 00:13:33 50° 288° (WNW) 00:17:39 437.425
AUBIESAT-1 29 Aug 00:10:10 00:14:14 30° 259° (W) 00:18:19 437.475
50 SAT 29 Aug 00:10:46 00:14:21 80° 77° (ENE) 00:17:57 437.505
M-CUBED/EXP-1 PRIME 29 Aug 00:17:37 00:21:16 22° 262° (W) 00:24:56 437.505
BUGSAT 1 29 Aug 00:18:08 00:18:56 10° 88° (E) 00:19:43 437.445
QB50P1 29 Aug 00:25:28 00:29:21 35° 97° (E) 00:33:12 145.935-145.965
O/OREOS (USA 219) 29 Aug 00:29:25 00:33:53 51° 251° (WSW) 00:38:21 437.305
CUBEBUG 1 29 Aug 00:31:11 00:35:29 53° 260° (W) 00:39:50 437.445
VELOX 1 29 Aug 00:32:42 00:37:06 62° 259° (W) 00:41:32 145.980
POPSAT HIP 1 29 Aug 00:35:30 00:39:34 44° 99° (E) 00:43:34 437.405
SO-50 29 Aug 00:39:46 00:44:36 63° 308° (NW) 00:49:23 436.795
SPROUT 29 Aug 00:42:01 00:46:19 86° 80° (E) 00:50:40 437.525
DX 1 29 Aug 00:45:10 00:49:30 65° 258° (WSW) 00:53:54 434.975-435.025
ANTELSAT 29 Aug 00:46:57 00:50:16 22° 295° (WNW) 00:53:33 437.575/2403.000
GONETS M04 29 Aug 00:48:10 00:56:24 45° 273° (W) 01:04:36
DANDE 29 Aug 00:48:46 00:51:22 78° 97° (E) 00:54:16 436.750
JAS-2 29 Aug 00:48:58 00:55:25 41° 97° (E) 01:02:26 435.910
Cosmos 2499 29 Aug 00:55:11 01:01:45 43° 271° (W) 01:08:22 435.465 / 435.565
TISAT 1 29 Aug 00:56:35 01:00:14 28° 68° (ENE) 01:03:55 437.305
DUCHIFAT 1 29 Aug 01:01:25 01:05:38 78° 101° (ESE) 01:09:48 145.980
QB50P2 29 Aug 01:06:12 01:10:26 78° 284° (WNW) 01:14:38 145.880/145.840
POLYITAN 1 29 Aug 01:08:43 01:12:57 77° 284° (WNW) 01:17:07 437.675
SWISSCUBE 29 Aug 01:11:57 01:13:39 12° 57° (ENE) 01:15:20 437.505
NANOSAT C BR1 29 Aug 01:15:59 01:20:11 68° 286° (WNW) 01:24:21 145.865
Oscar 19 29 Aug 01:17:34 01:18:27 10° 86° (E) 01:19:19 437.125/150
PHONESAT 2.4 29 Aug 01:18:28 01:18:43 10° 152° (SSE) 01:19:00 2401.200-2431.200
TIGRISAT 29 Aug 01:18:51 01:20:31 12° 300° (WNW) 01:22:11 435.000
CUSAT 1 29 Aug 01:22:22 01:23:43 12° 301° (WNW) 01:25:11 437.405
ESTCUBE 1 29 Aug 01:23:04 01:24:39 12° 272° (W) 01:26:15 437.505/2401.250
AISAT 29 Aug 01:23:26 01:26:35 19° 268° (W) 01:29:46 437.250
UKube-1 29 Aug 01:23:28 01:27:21 32° 263° (W) 01:31:17 .
BEESAT 29 Aug 01:27:46 01:30:28 15° 60° (ENE) 01:33:10 436.000
BUGSAT 1 29 Aug 01:50:40 01:54:49 70° 285° (WNW) 01:58:52 437.445
QB50P1 29 Aug 02:01:39 02:04:56 22° 294° (WNW) 02:08:13 145.935-145.965
POPSAT HIP 1 29 Aug 02:12:07 02:15:01 18° 296° (WNW) 02:17:55 437.405
ITUPSAT 1 29 Aug 02:14:08 02:18:31 38° 69° (ENE) 02:22:56 437.325
RS-15 29 Aug 02:15:20 02:26:55 84° 122° (ESE) 02:39:10 29.354- 29.394
SO-50 29 Aug 02:23:20 02:26:01 15° 329° (NNW) 02:28:40 436.795
TISAT 1 29 Aug 02:32:11 02:35:51 27° 264° (W) 02:39:30 437.305
JAS-2 29 Aug 02:34:05 02:40:25 44° 293° (WNW) 02:47:24 435.910
Gurwin Techsat 1B 29 Aug 02:36:49 02:41:22 28° 95° (E) 02:45:55 435.225
DUCHIFAT 1 29 Aug 02:39:21 02:40:42 11° 300° (WNW) 02:42:03 145.980
SWISSCUBE 29 Aug 02:45:56 02:50:42 87° 75° (ENE) 02:55:29 437.505
KKS-1 29 Aug 02:49:39 02:51:01 11° 58° (ENE) 02:52:22 437.445
PHONESAT 2.4 29 Aug 02:51:50 02:54:29 28° 167° (SSE) 02:57:08 2401.200-2431.200
